Regional Weather Roundup
Issued by NWS

Home | Current Version | Previous Version | Graphics & Text | Print | Product List | Glossary On
Versions: 1 2 3 4 5 6 7 8 9 10 11 12 13 14 15 16 17 18 19 20 21 22 23 24 25 26 27 28 29 30 31 32 33 34 35 36 37 38 39 40 41 42 43 44 45 46 47 48 49 50
000
ASUS43 KLMK 240702
RWRKY
KENTUCKY REGIONAL WEATHER ROUNDUP
NATIONAL WEATHER SERVICE LOUISVILLE KY
200 AM EST MON NOV 24 2014

NOTE "FAIR" INDICATES FEW OR NO CLOUDS BELOW 12,000 FEET
WITH NO SIGNIFICANT WEATHER AND/OR OBSTRUCTIONS TO VISIBILITY.

KYZ001>023-026-027-061>063-070>075-240800-
WESTERN AND SOUTH CENTRAL KENTUCKY

CITY           SKY/WX    TMP DP  RH WIND       PRES   REMARKS
PADUCAH        CLOUDY    61  57  87 SW8G25    29.31S
HENDERSON      CLOUDY    59  54  82 S13G20    29.30F
OWENSBORO      CLOUDY    60  57  89 MISG      29.34F
HOPKINSVILLE   PTCLDY    61  61 100 S16G23    29.39F
BOWLING GREEN  MOCLDY    62  56  80 S14       29.43F
GLASGOW        NOT AVBL
$$

KYZ024-025-028>034-038-045-046-053-240800-
NORTH CENTRAL KENTUCKY

CITY           SKY/WX    TMP DP  RH WIND       PRES   REMARKS
LOUISVILLE/SDF CLOUDY    61  57  87 SW15G23   29.36S
LOUISVILLE/LOU LGT RAIN  60  57  89 S9G20     29.36S
FORT KNOX      LGT RAIN  59  57  91 S16G23    29.37S
$$

KYZ035>037-039>044-047>052-055>060-089>105-240800-
NORTHEAST KENTUCKY

CITY           SKY/WX    TMP DP  RH WIND       PRES   REMARKS
LEXINGTON      CLOUDY    59  57  93 SW20G26   29.42R
COVINGTON      CLOUDY    59  53  80 SW16G25   29.32R
FRANKFORT      CLOUDY    60  56  86 SW18G29   29.38R
$$

KYZ054-064>069-076>088-106>120-240800-
SOUTHEAST KENTUCKY

CITY           SKY/WX    TMP DP  RH WIND       PRES   REMARKS
JACKSON        CLOUDY    61  52  72 MISG      29.50R
LONDON         CLOUDY    62  53  72 SW15G25   29.53R
SOMERSET       NOT AVBL
MIDDLESBORO    DRIZZLE   61  55  82 S9G23     29.60R
MONTICELLO     PTSUNNY   63  56  78 SW20G25   29.54S
$$




USA.gov is the U.S. government's official web portal to all federal, state and local government web resources and services.